[[{"header":{"parameterUnit":"m.s-1","parameterCategory":1,"la1":30.2991,"la2":30.254,"lo1":-89.0895,"lo2":-89.0444,"dy":0.0017,"dx":0.0017,"nx":28,"ny":28,"refTime":"2023-10-08T03:00:00:Z","depth":0,"parameterNumber":2,"parameterNumberName":"U-component_of_WINDS"},"data":[0,0,0,0,0,0,0,0,0,0,0,0,0,0,0,0,0,0,0,0,0,0,0,0,0,0,0,0,0,0,0,0,0,0,0,0,0,0,0,0,0,0,0,0,0,0,0,0,0,0,0,0,0,0,0,0,0,0,-1.4263,-1.4264,0,-1.4314,-1.4315,-1.4316,-1.4237,-1.4234,-1.4231,-1.4229,-1.4282,-1.4286,-1.429,0,0,0,0,0,0,0,0,0,0,0,0,0,-1.4098,-1.4101,-1.4263,-1.4264,-1.4265,-1.4314,-1.4315,-1.4316,-1.4237,-1.4234,-1.4231,-1.4228,-1.4281,-1.4286,-1.429,0,0,0,0,0,0,0,0,0,0,0,0,0,-1.4161,-1.4102,-1.4263,-1.4231,-1.4229,-1.4314,-1.4315,-1.4316,-1.4238,-1.4234,-1.423,-1.4226,-1.4279,-1.4285,-1.4291,-1.441,0,0,-1.4309,-1.4312,0,0,0,0,0,0,0,0,-1.4158,-1.4168,-1.4236,-1.4234,-1.4231,-1.4265,-1.4276,-1.4347,-1.4239,-1.4235,-1.4229,-1.4224,-1.428,-1.4286,-1.4304,-1.4412,-1.4415,-1.431,-1.4313,-1.4316,-1.4318,0,0,0,0,0,0,0,-1.4154,-1.4165,-1.4283,-1.4237,-1.4234,-1.4215,-1.4219,-1.4289,-1.428,-1.4235,-1.4229,-1.4236,-1.4278,-1.4299,-1.4305,-1.4416,-1.431,-1.4315,-1.4319,-1.4321,-1.4623,-1.4627,0,0,0,0,0,0,-1.4153,-1.4162,-1.4282,-1.4285,-1.4184,-1.4221,-1.4226,-1.4258,-1.4279,-1.4278,-1.424,-1.4232,-1.4291,-1.4298,-1.4306,-1.4447,-1.4316,-1.4322,-1.4325,-1.4619,-1.4624,-1.4629,0,0,0,0,0,0,-1.415,-1.4164,-1.428,-1.4222,-1.4235,-1.4228,-1.4265,-1.4262,-1.4282,-1.4282,-1.428,-1.4263,-1.4288,-1.4298,-1.4385,-1.4448,-1.4324,-1.433,-1.4613,-1.462,-1.4626,-1.473,0,0,0,0,0,0,-1.4145,-1.4164,-1.4209,-1.4224,-1.4238,-1.4358,-1.4269,-1.4266,-1.4293,-1.4283,-1.4303,-1.4303,-1.4285,-1.4376,-1.4391,-1.4454,-1.4334,-1.4608,-1.4616,-1.4624,-1.4721,-1.474,-1.4755,0,0,0,0,0,-1.414,-1.4237,-1.4212,-1.4227,-1.4295,-1.4362,-1.437,-1.4348,-1.4298,-1.4344,-1.4343,-1.4302,-1.4438,-1.4386,-1.4401,-1.4468,-1.4604,-1.4614,-1.4624,-1.4713,-1.4736,-1.4755,0,0,0,0,0,0,-1.4231,-1.4238,-1.4211,-1.4315,-1.4338,-1.4348,-1.4405,-1.4372,-1.441,-1.44,-1.437,-1.4376,-1.4469,-1.4476,-1.4417,-1.4583,-1.4513,-1.4526,-1.4576,-1.4597,-1.4614,-1.4611,-1.4339,0,0,0,0,0,-1.4263,-1.4316,-1.4319,-1.4411,-1.4424,-1.4413,-1.4441,-1.4421,-1.4444,-1.4454,-1.446,-1.4484,-1.4532,-1.4564,-1.4608,-1.472,-1.4724,-1.4773,-1.4791,-1.4805,-1.4818,-1.4878,-1.49,-1.4662,-1.4662,-1.4661,0,0,-1.4331,-1.4341,-1.4377,-1.443,-1.4446,-1.4502,-1.4422,-1.4484,-1.4526,-1.4463,-1.4546,-1.4551,-1.4575,-1.4675,-1.472,-1.4684,-1.4884,-1.4817,-1.4829,-1.4834,-1.489,-1.4913,-1.4933,-1.4668,-1.4667,-1.4666,0,0,-1.4483,-1.4495,-1.4573,-1.459,-1.4614,-1.4605,-1.4624,-1.4639,-1.464,-1.4721,-1.4675,-1.4723,-1.4807,-1.4826,-1.4847,-1.5004,-1.4968,-1.5019,-1.5109,-1.5168,-1.5187,-1.5203,-1.5261,-1.5281,-1.5031,-1.5031,-1.5031,0,-1.4564,-1.4646,-1.4618,-1.4684,-1.4709,-1.4653,-1.4732,-1.4749,-1.4787,-1.4806,-1.4765,-1.4868,-1.488,-1.4984,-1.5022,-1.504,-1.5061,-1.5018,-1.5186,-1.5203,-1.5218,-1.5272,-1.5293,-1.5037,-1.5037,-1.5036,-1.5035,0,-1.4745,-1.4803,-1.4863,-1.49,-1.4931,-1.5004,-1.4986,-1.5021,-1.4997,-1.4993,-1.5077,-1.5089,-1.5135,-1.5157,-1.5135,-1.5258,-1.5235,-1.5191,-1.512,-1.5247,-1.5298,-1.5318,-1.5046,-1.5044,-1.5042,-1.5041,0,0,-1.496,-1.4978,-1.5001,-1.5017,-1.5038,-1.5083,-1.5151,-1.5195,-1.5226,-1.5253,-1.5311,-1.5381,-1.534,-1.5363,-1.5342,-1.5394,-1.5518,-1.5343,-1.5343,-1.5377,-1.5655,-1.569,-1.5714,-1.5493,-1.5496,-1.5499,-1.5653,0,-1.5112,-1.5232,-1.5207,-1.5324,-1.5377,-1.5324,-1.5383,-1.5403,-1.54,-1.5444,-1.544,-1.5491,-1.5432,-1.5446,-1.5494,-1.5493,-1.5574,-1.5481,-1.5547,-1.555,-1.5546,-1.574,-1.5778,-1.5923,-1.5672,-1.5676,-1.5678,0,-1.5307,-1.5341,-1.5464,-1.5475,-1.5497,-1.5551,-1.5589,-1.5632,-1.5652,-1.5646,-1.5671,-1.564,-1.5708,-1.5634,-1.5728,-1.5665,-1.569,-1.5693,-1.5698,-1.5706,-1.5624,-1.5755,-1.5968,-1.5991,-1.5709,-1.5706,-1.5704,0,-1.5454,-1.5529,-1.5612,-1.5627,-1.5643,-1.5682,-1.5691,-1.5707,-1.5734,-1.5767,-1.5785,-1.5825,-1.5847,-1.5879,-1.5859,-1.5807,-1.5956,-1.588,-1.5954,-1.5955,-1.5991,-1.599,-1.6213,-1.6003,-1.6003,-1.6002,-1.6002,0,-1.5629,-1.5706,-1.5678,-1.573,-1.5815,-1.5784,-1.5869,-1.5871,-1.5885,-1.5936,-1.5891,-1.5939,-1.5909,-1.5955,-1.594,-1.602,-1.603,-1.6027,-1.6023,-1.6033,-1.6034,-1.6051,-1.6042,-1.6008,-1.6007,-1.6006,-1.6005,0,-1.5808,-1.5792,-1.5879,-1.5886,-1.5889,-1.5952,-1.5958,-1.6005,-1.5997,-1.6062,-1.6075,-1.6063,-1.6115,-1.6097,-1.6152,-1.6142,-1.6245,-1.6226,-1.6238,-1.6234,-1.631,-1.6304,-1.6555,-1.6586,-1.6354,-1.6356,-1.6358,0,-1.5922,-1.598,-1.5993,-1.6023,-1.6035,-1.6084,-1.6112,-1.6083,-1.6114,-1.614,-1.6185,-1.6232,-1.6269,-1.6353,-1.635,-1.6391,-1.6375,-1.6459,-1.6381,-1.6389,-1.6378,-1.6376,-1.6382,-1.6476,-1.6479,-1.6481,-1.6483,0,-1.6127,-1.6115,-1.6157,-1.6196,-1.623,-1.6259,-1.6284,-1.6311,-1.6284,-1.6321,-1.6372,-1.6401,-1.6456,-1.6504,-1.6541,-1.6549,-1.6513,-1.6507,-1.6527,-1.6539,-1.6545,-1.6545,-1.6284,-1.6502,-1.65,-1.6499,-1.6498,-1.6497,-1.6278,-1.6327,-1.6344,-1.6391,-1.6407,-1.6431,-1.6476,-1.6473,-1.6515,-1.6559,-1.6538,-1.6598,-1.6615,-1.6661,-1.6674,-1.6721,-1.6688,-1.6716,-1.6724,-1.6732,-1.6742,-1.6535,-1.6727,-1.6726,-1.6726,-1.6725,-1.6725,0,-1.6482,-1.6489,-1.6533,-1.6569,-1.6606,-1.6566,-1.6591,-1.6625,-1.6679,-1.6697,-1.6734,-1.6793,-1.6838,-1.6837,-1.6879,-1.6916,-1.6901,-1.6929,-1.6927,-1.693,-1.6768,-1.6748,-1.6941,-1.6941,-1.6941,-1.6941,-1.6941,-1.6941,-1.6593,-1.6674,-1.6665,-1.6753,-1.6759,-1.6818,-1.6835,-1.6857,-1.6872,-1.694,-1.6977,-1.6976,-1.6986,-1.7028,-1.7068,-1.7066,-1.7085,-1.712,-1.7112,-1.6962,-1.6941,-1.6921,-1.6902,-1.7123,-1.7124,-1.727,-1.7271,-1.7272]},{"header":{"parameterUnit":"m.s-1","parameterCategory":1,"la1":30.2991,"la2":30.254,"lo1":-89.0895,"lo2":-89.0444,"dy":0.0017,"dx":0.0017,"nx":28,"ny":28,"refTime":"2023-10-08T03:00:00:Z","depth":0,"parameterNumber":3,"parameterNumberName":"V-component_of_WINDS"},"data":[0,0,0,0,0,0,0,0,0,0,0,0,0,0,0,0,0,0,0,0,0,0,0,0,0,0,0,0,0,0,0,0,0,0,0,0,0,0,0,0,0,0,0,0,0,0,0,0,0,0,0,0,0,0,0,0,0,0,-6.6709,-6.6711,0,-6.6821,-6.6822,-6.6823,-6.6705,-6.67,-6.6696,-6.6691,-6.68,-6.6806,-6.6813,0,0,0,0,0,0,0,0,0,0,0,0,0,-6.6387,-6.6394,-6.6709,-6.6711,-6.6712,-6.6821,-6.6822,-6.6824,-6.6706,-6.67,-6.6694,-6.6689,-6.6797,-6.6806,-6.6814,0,0,0,0,0,0,0,0,0,0,0,0,0,-6.6516,-6.6396,-6.6709,-6.6666,-6.6664,-6.682,-6.6822,-6.6824,-6.6707,-6.67,-6.6693,-6.6687,-6.6794,-6.6805,-6.6815,-6.7018,0,0,-6.6848,-6.6853,0,0,0,0,0,0,0,0,-6.6509,-6.6528,-6.6671,-6.667,-6.6667,-6.6742,-6.6748,-6.6889,-6.6708,-6.669,-6.6691,-6.6683,-6.6786,-6.6796,-6.6832,-6.7023,-6.7027,-6.6849,-6.6855,-6.686,-6.6863,0,0,0,0,0,0,0,-6.65,-6.6522,-6.6753,-6.6673,-6.6671,-6.6639,-6.665,-6.6774,-6.6775,-6.6691,-6.6683,-6.6698,-6.6783,-6.6822,-6.6834,-6.7029,-6.6849,-6.6858,-6.6865,-6.6869,-6.739,-6.7397,0,0,0,0,0,0,-6.6497,-6.6516,-6.675,-6.6757,-6.657,-6.6651,-6.6663,-6.6725,-6.6773,-6.6774,-6.6704,-6.6692,-6.6807,-6.6822,-6.6837,-6.7077,-6.686,-6.687,-6.6876,-6.7383,-6.7392,-6.74,0,0,0,0,0,0,-6.649,-6.6519,-6.6745,-6.6634,-6.666,-6.6664,-6.6734,-6.6731,-6.677,-6.6783,-6.6781,-6.6744,-6.6802,-6.6822,-6.6974,-6.7079,-6.6875,-6.6884,-6.7374,-6.7385,-6.7396,-6.7559,0,0,0,0,0,0,-6.6482,-6.6517,-6.6596,-6.6637,-6.6667,-6.6883,-6.6741,-6.6738,-6.6789,-6.6775,-6.682,-6.6821,-6.6799,-6.6959,-6.6985,-6.709,-6.6893,-6.7364,-6.7379,-6.7392,-6.7544,-6.7574,-6.76,0,0,0,0,0,-6.6471,-6.6636,-6.66,-6.6629,-6.6766,-6.6889,-6.6906,-6.6879,-6.6798,-6.6876,-6.6884,-6.682,-6.7064,-6.6975,-6.7003,-6.7114,-6.7358,-6.7375,-6.7391,-6.7531,-6.7568,-6.7599,0,0,0,0,0,0,-6.6605,-6.6641,-6.6601,-6.6786,-6.6836,-6.6869,-6.6966,-6.6918,-6.699,-6.6974,-6.6935,-6.6946,-6.7107,-6.7125,-6.7026,-6.7311,-6.7197,-6.722,-6.7294,-6.7329,-6.7357,-6.7349,-6.6902,0,0,0,0,0,-6.6657,-6.6756,-6.6781,-6.6941,-6.6968,-6.6964,-6.7016,-6.6991,-6.704,-6.706,-6.7079,-6.7127,-6.7214,-6.7272,-6.7353,-6.7546,-6.7553,-6.7635,-6.7663,-6.7686,-6.7707,-6.7809,-6.7845,-6.7455,-6.7455,-6.7454,0,0,-6.6763,-6.6795,-6.686,-6.6969,-6.7004,-6.7106,-6.6982,-6.7095,-6.7169,-6.7076,-6.7221,-6.7237,-6.7288,-6.7461,-6.7538,-6.7481,-6.7816,-6.7708,-6.7726,-6.7734,-6.783,-6.7867,-6.79,-6.7466,-6.7464,-6.7462,0,0,-6.701,-6.7045,-6.7182,-6.722,-6.7277,-6.7272,-6.7305,-6.7346,-6.7354,-6.7499,-6.7431,-6.7518,-6.767,-6.7709,-6.7749,-6.801,-6.7953,-6.8037,-6.8183,-6.8283,-6.8314,-6.8341,-6.8434,-6.8468,-6.8058,-6.8058,-6.8058,0,-6.7135,-6.7288,-6.7258,-6.7376,-6.7425,-6.7348,-6.7485,-6.7523,-6.7602,-6.7637,-6.7572,-6.7761,-6.779,-6.7971,-6.8035,-6.807,-6.8105,-6.8032,-6.8313,-6.8339,-6.8364,-6.8452,-6.8487,-6.8068,-6.8067,-6.8066,-6.8065,0,-6.7439,-6.7546,-6.7649,-6.773,-6.7791,-6.7918,-6.7905,-6.7969,-6.7939,-6.7941,-6.8089,-6.8121,-6.8207,-6.8248,-6.8218,-6.8425,-6.8388,-6.8319,-6.8203,-6.8412,-6.8494,-6.8527,-6.8082,-6.8078,-6.8076,-6.8073,0,0,-6.7773,-6.7836,-6.7875,-6.791,-6.7967,-6.8048,-6.817,-6.8257,-6.8313,-6.8369,-6.847,-6.86,-6.8537,-6.8582,-6.8556,-6.8644,-6.8849,-6.8564,-6.8564,-6.8616,-6.9077,-6.9129,-6.9169,-6.8811,-6.8818,-6.8823,-6.9073,0,-6.8021,-6.8237,-6.8213,-6.8418,-6.8516,-6.8443,-6.855,-6.8595,-6.86,-6.8682,-6.8685,-6.8779,-6.8688,-6.8715,-6.8799,-6.8806,-6.8941,-6.8788,-6.8903,-6.8908,-6.8893,-6.9211,-6.9266,-6.9501,-6.9105,-6.911,-6.9114,0,-6.8339,-6.841,-6.8626,-6.8667,-6.8707,-6.8804,-6.8881,-6.896,-6.9009,-6.9006,-6.9058,-6.9016,-6.9137,-6.9019,-6.9184,-6.9081,-6.9126,-6.9137,-6.9145,-6.9155,-6.9024,-6.9229,-6.9575,-6.9611,-6.9164,-6.916,-6.9156,0,-6.8562,-6.871,-6.8859,-6.8891,-6.8943,-6.9013,-6.9037,-6.9079,-6.9132,-6.9199,-6.9232,-6.9311,-6.9355,-6.9416,-6.9395,-6.9312,-6.9565,-6.9445,-6.9565,-6.9566,-6.9621,-6.9618,-6.998,-6.9651,-6.9651,-6.965,-6.9649,0,-6.8841,-6.8976,-6.8959,-6.9051,-6.9199,-6.9169,-6.9315,-6.933,-6.9368,-6.9459,-6.94,-6.9486,-6.9455,-6.9539,-6.9523,-6.9662,-6.9682,-6.9682,-6.9676,-6.9688,-6.9688,-6.9717,-6.97,-6.966,-6.9657,-6.9656,-6.9654,0,-6.9115,-6.9109,-6.9266,-6.9303,-6.9315,-6.9422,-6.9452,-6.9537,-6.9537,-6.9653,-6.9679,-6.9679,-6.9774,-6.9761,-6.9866,-6.9856,-7.0029,-7.0004,-7.0014,-7.0008,-7.0128,-7.0117,-7.0521,-7.0572,-7.0211,-7.0214,-7.0217,0,-6.9293,-6.9396,-6.9444,-6.9502,-6.9532,-6.9626,-6.968,-6.9654,-6.9712,-6.9776,-6.9853,-6.9943,-7.0015,-7.017,-7.0179,-7.0259,-7.0234,-7.037,-7.0246,-7.0254,-7.0236,-7.0231,-7.024,-7.0395,-7.0399,-7.0402,-7.0405,0,-6.9611,-6.9603,-6.9686,-6.9768,-6.9835,-6.9897,-6.9953,-7.0003,-6.9982,-7.0051,-7.0149,-7.0205,-7.0313,-7.0404,-7.0479,-7.0501,-7.045,-7.0444,-7.0476,-7.0489,-7.049,-7.0491,-7.0081,-7.0435,-7.0432,-7.043,-7.0428,-7.0427,-6.9842,-6.993,-6.9978,-7.0071,-7.0111,-7.0165,-7.0246,-7.0258,-7.034,-7.0428,-7.0406,-7.0518,-7.0562,-7.0658,-7.0689,-7.0774,-7.0724,-7.077,-7.0781,-7.0793,-7.0808,-7.0477,-7.0787,-7.0786,-7.0786,-7.0785,-7.0784,0,-7.0157,-7.0184,-7.027,-7.0352,-7.0425,-7.0372,-7.0431,-7.0495,-7.0595,-7.0642,-7.0714,-7.0826,-7.0913,-7.0929,-7.1011,-7.1076,-7.1055,-7.1099,-7.1094,-7.11,-7.0848,-7.0812,-7.1115,-7.1115,-7.1115,-7.1115,-7.1115,-7.1115,-7.0329,-7.0474,-7.0472,-7.0636,-7.0661,-7.0771,-7.081,-7.0858,-7.0896,-7.1025,-7.1098,-7.1108,-7.1142,-7.1227,-7.1304,-7.1306,-7.1339,-7.1393,-7.1385,-7.115,-7.1117,-7.1086,-7.1052,-7.14,-7.14,-7.163,-7.1632,-7.1633]}]]